FENGYUN 1C DEB

Satellite information

Favourite Embed

Satellite Type and Status

DEBRISIN ORBIT

Key statistics

Satellite FENGYUN 1C DEB at a glance.

Uptime

9619

Days in orbit

Revolutions

≈ 13.6

Per day

Orbit

SSO

Sun Synchronous Orbit

Inclination

99.5

Latest

Satellite identification and parameters

Extended collection of information and parameters for FENGYUN 1C DEB.

Object identification

Identified? True

Debris? True

Object name: FENGYUN 1C DEB

International designator: 1999-025EUM

Object number (NORAD): 38797

Object ID (CCSDS): 38797

Country: PEOPLES REPUBLIC OF CHINA (PRC)

Current information (Y/N): Y

RCS size: SMALL

Orbital parameters

Period: 105.766 minutes

Inclination: 99.4887 deg

SMA: 7408.411 km

Apoapsis: 1212.763 km

Periapsis: 847.79 km

RAAN: 146.4352 deg

Eccentricy: 0.02463231

Argument of periapsis: 105.5138 deg

Mean anomaly: 257.3345 deg

Mean motion: 13.61492088 rev/day

Mean motion (dot): 0.00000294 rev/day2

B* drag term: 0.00035805935 1/REarth

Two-line elements (TLE)

Creation date: Sept. 8, 2025, 3:16 a.m.

Reference frame: TEME

Reference center: EARTH

Epoch: Sept. 7, 2025, 10:47 p.m. UTC

TLE line 0: 0 FENGYUN 1C DEB

TLE line 1: 1 38797U 99025EUM 25250.94974635 .00000294 00000-0 35806-3 0 9990

TLE line 2: 2 38797 99.4887 146.4352 0246323 105.5138 257.3345 13.61492088579797

Live tracking on map

Real-time ground track for satellite FENGYUN 1C DEB.

In-orbit conjunctions

A list of the most updated potential collisions computed for object FENGYUN 1C DEB.

Target Orbit TCA Probability of collision Miss distance Type
COSMOS 1670 LEO 2025-01-17 04:00:49 0.0002000044 189.0 (m) PAYLOAD
CZ-6A DEB SSO 2024-07-29 15:08:18 0.0001582729 33.0 (m) DEBRIS

Associated space launch

Chinese polar orbiting meteorological satellite

FENGYUN 1C DEB was lifted into orbit during the mission ‘Long March 4B | Feng Yun 1C’, on board a Long March 4B space rocket.

The launch took place on May 10, 1999, 1:33 a.m. from Launch Complex 7.

For more information about the launch, click the button.

Launch to space Long March 4B | Feng Yun 1C
Long March 4B | Feng Yun 1C

Agency: N/A

Status: Launch Successful

Launch date: May 10, 1999, 1:33 a.m. UTC

Rocket: Long March 4B

Launch pad: Launch Complex 7

Location: Taiyuan Satellite Launch Center, People's Republic of China

...

Latest news about this satellite

There are no fresh news available about this satellite. Check back as we update our databases every day.


Newsletter sign-up

Weekly statistics, charts and insights to help you stay on top of the space industry.